Showing default

EZIE-B, 63250

Orbit data source: Space-Track

EZIE-B, 63250 is an American payload satellite in SSO that was launched on Sat, 15 Mar 2025 UTC via an FALCON 9 launch vehicle from the Air Force Western Test Range (AFWTR). Payload-class satellites include a variety of spacecraft equipped with specific instruments for various scientific and technological missions. These include communications satellites like Starlink; space stations such as the ISS; scientific satellites like the Hubble; Earth observation satellites from companies like Planet Labs, Umbra, and HawkEye 360; GPS; miniature CubeSats for education and research; and military/defense satellites.

Loading next visibility...
Identifier
63250, 2025-052AS
Orbit
SSO
Country
Flag of USUS
Related business
Manufacturer
APL
Mission
Operational Civil Science
Bus & Motor
CUBESAT 6U, Unknown motor
Mass
~10 kg wet, ~10 kg dry
Launch date (UTC)
2025-03-15 (1 year ago)
Launch vehicle
FALCON 9
Launch site
Air Force Western Test Range (AFWTR)
Object type
Payload
Rocket body
Debris
Shape & HBR
Box, 0.4 m
Radar Cross Section
0.035 m², Medium (>0.1 m² and < 1m²)

Expand to show TLE details & history
Last TLE update: 5 hours ago

TLE from 5 hours ago
0 EZIE-B
1 63250U 25052AS  26249.62179472  .00002311  00000-0  20192-3 0  9995
2 63250  97.6775 140.5224 0002609 289.8337  70.2604 14.97756601 80850
Epoch: 2026-09-06T14:55Z
TLE epoch observation values (Epoch: 2026-09-06T14:55:23.063Z)
Latitude
-0.00003°
Longitude
-69.03797°
Altitude
576.27 km
Speed
7.573 km/s
True Right ascension
09h 22m 05s
True Declination
0° 00' 00"
Sunlit
Object was in daylight at epoch
Visualization orbit readout
Latitude
Unknown
Longitude
Unknown
Altitude
Unknown
Speed
Unknown
Apparent Right ascension
Unknown
Apparent Declination
Unknown
Sunlit
N/A
Visualization observer readout
Local Sidereal Time
12:22:26
Azimuth
Unknown
Elevation
Unknown
Doppler factor
Unknown
Orbital elements
Apogee altitude
572.65 km
Perigee altitude
569.024 km
Semi-major axis
6,948.974 km
Eccentricity
0.00026
Inclination
97.6775°
RAAN
140.5224°
Arg. of periapsis
289.8337°
True anomaly
70.28854°
Mean anomaly
70.2604°
Eccentric anomaly
70.27447°
Mean motion
3.74681 °/min
Orbital period
96.08 mins
BSTAR
0.00020192
Loading maneuver chart data...
Computing Atmospheric mass density...
Loading historical data...
Loading historical data...
Loading historical data...
Loading historical data...
Loading historical data...
Loading historical data...
Loading historical data...

Documentation

Showing up to 5 results
|